When you browse on this site, cookies collect data to enhance your experience and personalize the content and advertising you see.
Visit our Privacy Policy to learn more. By continuing to use the site, you agree to this use of cookies and data.
  • en France
  • Liste des pays
  • À 7 jours
  • Température de l'eau
  • Carte météo
  • Widgets météo
  • user-avatar
    Se connecter

    Météo par heure à Bulla Regia

    Ce jour, 6 Décembre, Vendredi

    Heure Température Précipitation Vent Pression Humidité
    00:00 +10°C° 0 mm 0 m/s 706 mmHg 60%
    01:00 +11°C° 0 mm 1 m/s 706 mmHg 60%
    02:00 +11°C° 0 mm 1 m/s 706 mmHg 60%
    03:00 +10°C° 0 mm 1 m/s 706 mmHg 60%
    04:00 +10°C° 0 mm 1 m/s 706 mmHg 61%
    05:00 +10°C° 0 mm 1 m/s 706 mmHg 61%
    06:00 +10°C° 0 mm 1 m/s 706 mmHg 61%
    07:00 +10°C° 0 mm 1 m/s 706 mmHg 61%
    08:00 +11°C° 0 mm 1 m/s 707 mmHg 57%
    09:00 +13°C° 0 mm 1 m/s 707 mmHg 54%
    10:00 +14°C° 0 mm 1 m/s 708 mmHg 50%
    11:00 +15°C° 0 mm 1 m/s 708 mmHg 47%
    12:00 +16°C° 0 mm 1 m/s 707 mmHg 43%
    13:00 +18°C° 0 mm 1 m/s 707 mmHg 40%
    14:00 +18°C° 0 mm 1 m/s 707 mmHg 42%
    15:00 +16°C° 0 mm 1 m/s 707 mmHg 44%
    16:00 +16°C° 0 mm 1 m/s 706 mmHg 45%
    17:00 +15°C° 0 mm 1 m/s 706 mmHg 48%
    18:00 +12°C° 0 mm 0 m/s 706 mmHg 51%
    19:00 +11°C° 0 mm 0 m/s 706 mmHg 55%
    20:00 +10°C° 0 mm 0 m/s 707 mmHg 55%
    21:00 +10°C° 0 mm 0 m/s 707 mmHg 55%
    22:00 +10°C° 0 mm 0 m/s 707 mmHg 56%
    23:00 +9°C° 0 mm 0 m/s 707 mmHg 56%

    Demain, 7 Décembre, Samedi

    Heure Température Précipitation Vent Pression Humidité
    00:00 +9°C° 0 mm 0 m/s 707 mmHg 56%
    01:00 +10°C° 0 mm 1 m/s 706 mmHg 56%
    02:00 +10°C° 0 mm 1 m/s 706 mmHg 56%
    03:00 +9°C° 0 mm 1 m/s 706 mmHg 56%
    04:00 +9°C° 0 mm 1 m/s 706 mmHg 56%
    05:00 +9°C° 0 mm 1 m/s 706 mmHg 56%
    06:00 +9°C° 0 mm 1 m/s 706 mmHg 56%
    07:00 +9°C° 0 mm 1 m/s 706 mmHg 56%
    08:00 +11°C° 0 mm 1 m/s 706 mmHg 51%
    09:00 +12°C° 0 mm 1 m/s 707 mmHg 47%
    10:00 +14°C° 0 mm 1 m/s 707 mmHg 42%
    11:00 +15°C° 0 mm 1 m/s 707 mmHg 39%
    12:00 +16°C° 0 mm 1 m/s 707 mmHg 36%
    13:00 +17°C° 0 mm 0 m/s 707 mmHg 33%
    14:00 +18°C° 0 mm 1 m/s 706 mmHg 36%
    15:00 +18°C° 0 mm 1 m/s 706 mmHg 38%
    16:00 +18°C° 0 mm 1 m/s 706 mmHg 41%
    17:00 +15°C° 0 mm 1 m/s 706 mmHg 46%
    18:00 +14°C° 0 mm 1 m/s 706 mmHg 51%
    19:00 +12°C° 0 mm 1 m/s 706 mmHg 56%
    20:00 +12°C° 0 mm 1 m/s 706 mmHg 58%
    21:00 +11°C° 0 mm 1 m/s 706 mmHg 60%
    22:00 +11°C° 0 mm 1 m/s 706 mmHg 62%
    23:00 +10°C° 0 mm 1 m/s 706 mmHg 65%

    Après-demain, 8 Décembre, Dimanche

    Heure Température Précipitation Vent Pression Humidité
    00:00 +10°C° 0 mm 1 m/s 706 mmHg 68%
    01:00 +10°C° 0 mm 1 m/s 706 mmHg 70%
    02:00 +9°C° 0 mm 1 m/s 706 mmHg 72%
    03:00 +9°C° 0 mm 1 m/s 706 mmHg 74%
    04:00 +9°C° 0 mm 1 m/s 706 mmHg 76%
    05:00 +8°C° 0 mm 1 m/s 706 mmHg 78%
    06:00 +8°C° 0 mm 1 m/s 706 mmHg 80%
    07:00 +8°C° 0 mm 1 m/s 707 mmHg 82%
    08:00 +9°C° 0 mm 1 m/s 707 mmHg 78%
    09:00 +11°C° 0 mm 1 m/s 708 mmHg 74%
    10:00 +12°C° 0 mm 1 m/s 709 mmHg 70%
    11:00 +13°C° 0 mm 2 m/s 708 mmHg 65%
    12:00 +14°C° 0 mm 2 m/s 708 mmHg 60%
    13:00 +14°C° 0 mm 3 m/s 708 mmHg 55%
    14:00 +14°C° 0 mm 3 m/s 708 mmHg 57%
    15:00 +14°C° 0 mm 3 m/s 708 mmHg 59%
    16:00 +13°C° 0 mm 4 m/s 708 mmHg 61%
    17:00 +12°C° 0 mm 3 m/s 708 mmHg 70%
    18:00 +10°C° 0 mm 2 m/s 708 mmHg 78%
    19:00 +10°C° 0 mm 1 m/s 708 mmHg 87%
    20:00 +10°C° 0 mm 1 m/s 708 mmHg 88%
    21:00 +9°C° 0 mm 1 m/s 708 mmHg 89%
    22:00 +9°C° 0 mm 1 m/s 708 mmHg 89%
    23:00 +8°C° 0 mm 2 m/s 708 mmHg 89%

    9 Décembre, Lundi

    Heure Température Précipitation Vent Pression Humidité
    00:00 +8°C° 0 mm 2 m/s 708 mmHg 88%
    01:00 +7°C° 0 mm 2 m/s 708 mmHg 88%
    02:00 +7°C° 0 mm 2 m/s 707 mmHg 86%
    03:00 +7°C° 0 mm 2 m/s 707 mmHg 84%
    04:00 +7°C° 0 mm 2 m/s 707 mmHg 82%
    05:00 +7°C° 0 mm 2 m/s 707 mmHg 81%
    06:00 +7°C° 0 mm 2 m/s 707 mmHg 80%
    07:00 +7°C° 0 mm 2 m/s 707 mmHg 80%
    08:00 +8°C° 0 mm 3 m/s 707 mmHg 75%
    09:00 +10°C° 0 mm 3 m/s 708 mmHg 69%
    10:00 +11°C° 0 mm 4 m/s 708 mmHg 64%
    11:00 +12°C° 0 mm 4 m/s 708 mmHg 64%
    12:00 +12°C° 0 mm 4 m/s 707 mmHg 63%
    13:00 +12°C° 0 mm 5 m/s 707 mmHg 63%
    14:00 +12°C° 0 mm 4 m/s 707 mmHg 64%
    15:00 +12°C° 0 mm 4 m/s 706 mmHg 64%
    16:00 +12°C° 0 mm 4 m/s 706 mmHg 65%
    17:00 +11°C° 0 mm 3 m/s 706 mmHg 70%
    18:00 +10°C° 0 mm 3 m/s 706 mmHg 75%
    19:00 +9°C° 0 mm 2 m/s 706 mmHg 80%
    20:00 +8°C° 0 mm 2 m/s 706 mmHg 81%
    21:00 +8°C° 0 mm 3 m/s 706 mmHg 82%
    22:00 +8°C° 0 mm 3 m/s 706 mmHg 82%
    23:00 +8°C° 0 mm 3 m/s 706 mmHg 83%

    10 Décembre, Mardi

    Heure Température Précipitation Vent Pression Humidité
    00:00 +7°C° 0 mm 4 m/s 706 mmHg 84%
    01:00 +8°C° 0 mm 5 m/s 706 mmHg 84%
    02:00 +8°C° 0 mm 5 m/s 706 mmHg 84%
    03:00 +7°C° 0 mm 5 m/s 705 mmHg 84%
    04:00 +7°C° 0 mm 5 m/s 705 mmHg 84%
    05:00 +7°C° 0 mm 5 m/s 705 mmHg 84%
    06:00 +7°C° 0 mm 5 m/s 705 mmHg 84%
    07:00 +7°C° 0 mm 4 m/s 705 mmHg 84%
    08:00 +8°C° 0.1 mm 5 m/s 705 mmHg 82%
    09:00 +8°C° 0.1 mm 6 m/s 705 mmHg 80%
    10:00 +9°C° 0.1 mm 7 m/s 705 mmHg 78%
    11:00 +9°C° 0.1 mm 8 m/s 705 mmHg 77%
    12:00 +9°C° 0.1 mm 8 m/s 705 mmHg 75%
    13:00 +9°C° 0.1 mm 8 m/s 704 mmHg 73%
    14:00 +8°C° 0.3 mm 9 m/s 704 mmHg 74%
    15:00 +7°C° 0.3 mm 10 m/s 704 mmHg 74%
    16:00 +7°C° 0.3 mm 11 m/s 704 mmHg 75%
    17:00 +7°C° 0.3 mm 11 m/s 704 mmHg 76%
    18:00 +7°C° 0.3 mm 11 m/s 705 mmHg 77%
    19:00 +6°C° 0.3 mm 10 m/s 705 mmHg 78%
    20:00 +6°C° 0 mm 10 m/s 705 mmHg 77%
    21:00 +5°C° 0 mm 10 m/s 705 mmHg 77%
    22:00 +5°C° 0 mm 9 m/s 706 mmHg 77%
    23:00 +5°C° 0 mm 8 m/s 706 mmHg 79%

    11 Décembre, Mercredi

    Heure Température Précipitation Vent Pression Humidité
    00:00 +4°C° 0 mm 7 m/s 706 mmHg 81%
    01:00 +4°C° 0 mm 6 m/s 706 mmHg 83%
    02:00 +5°C° 0 mm 5 m/s 706 mmHg 85%
    03:00 +3°C° 0 mm 5 m/s 706 mmHg 86%
    04:00 +4°C° 0 mm 4 m/s 706 mmHg 87%
    05:00 +4°C° 0 mm 3 m/s 706 mmHg 88%
    06:00 +5°C° 0 mm 2 m/s 707 mmHg 89%
    07:00 +5°C° 0 mm 2 m/s 707 mmHg 91%
    08:00 +6°C° 0 mm 2 m/s 707 mmHg 85%
    09:00 +7°C° 0 mm 2 m/s 708 mmHg 79%
    10:00 +9°C° 0 mm 3 m/s 708 mmHg 73%
    11:00 +10°C° 0 mm 2 m/s 708 mmHg 67%
    12:00 +12°C° 0 mm 2 m/s 708 mmHg 61%
    13:00 +12°C° 0 mm 2 m/s 707 mmHg 55%
    14:00 +13°C° 0 mm 1 m/s 707 mmHg 54%
    15:00 +13°C° 0 mm 1 m/s 706 mmHg 53%
    16:00 +12°C° 0 mm 0 m/s 706 mmHg 52%
    17:00 +10°C° 0 mm 0 m/s 706 mmHg 58%
    18:00 +9°C° 0 mm 0 m/s 706 mmHg 64%
    19:00 +7°C° 0 mm 0 m/s 705 mmHg 70%
    20:00 +7°C° 0 mm 0 m/s 705 mmHg 69%
    21:00 +7°C° 0 mm 0 m/s 705 mmHg 69%
    22:00 +8°C° 0 mm 1 m/s 705 mmHg 68%
    23:00 +8°C° 0 mm 1 m/s 705 mmHg 65%
    Voir plus